星链-31487 (STARLINK-31487 )

导读 | 星芒AI

STARLINK-31487 是 SpaceX Starlink 卫星互联网项目中的一颗低轨卫星,属于第6批部署的星链卫星之一。该卫星于2023年10月发射,运行在约550公里高度的近地轨道,旨在为全球提供高速、低延迟的宽带互联网服务。作为星链星座的一部分,STARLINK-31487 采用先进的相控阵天线和激光通信技术,支持全球范围内的网络连接,尤其在偏远和网络基础设施薄弱地区发挥重要作用。

基本信息
目录编号:
59297
目录名称:
STARLINK-31487
国际标识:
2024-056B
轨道中心:
EARTH
卫星名称:
星链-31487
卫星全名:
星链-31487 (STARLINK-31487 )
卫星状态:
在轨 (已飞行588 天)
发射日期:
2024-03-24 UTC
国别 :
美国 (US)
星等 :
--
轨道信息
数据来源 国际轨道数据
星历时间: 2025-11-01T10:04:13+0800
1天前
查看轨道信息
半长轴: 6861.228km
偏心率: 0.0001507
轨道倾角: 43.004°
近地点辐角 253.251°
升交点赤经 237.215°
平近点角 106.818°
近地点: 482.059km
远地点: 484.127km
周期: 94.268分钟
每日圈数: 15.275662
详细信息
固有亮度:
5
最大亮度:
0.3
卫星平台:
Starlink v2.0 mini
覆盖范围:
全球
运营商:
太空探索技术公司
运营商所在国:
美国
制造商(研发单位):
太空探索技术公司
制造商所在国:
美国
使用方式:
暂无
卫星简介
星链(Starlink)计划是由太空探索技术公司(SpaceX)提出的一个巨型低轨卫星互联网星座项目,计划在2019年至2024年间在太空搭建由约1.2万颗卫星组成的“星链”网络,其中1584颗将部署在地球上空550千米处的近地轨道,并从2020年开始工作。该卫星仍在工作。
2D轨道图
3D轨道图
轨道高度分析图
轨道倾角分析图
轨道综合分析图
查看轨道综合分析图